GW7219 Weather Reports


Display with metric or nautical units.
time (UTC)temp
F
wind
direction
speed
MPH
gust
MPH
rain 1hr
in
rain 24hr
in
rain mn
in
humidity
%
barometer
mb
20260906225016 79 253 1.0 3.0 0.00 0.00 0.00 43 1011.6
20260906224016 78 253 1.0 2.0 0.00 0.00 0.00 44 1011.6
20260906223017 78 264 3.0 3.0 0.00 0.00 0.00 44 1011.7
20260906222016 79 0.0 1.0 0.00 0.00 0.00 44 1011.6
20260906221016 78 256 1.0 1.0 0.00 0.00 0.00 47 1011.9
20260906220016 76 250 0.0 2.0 0.00 0.00 0.00 48 1012.3
20260906215016 77 251 1.0 3.0 0.00 0.00 0.00 46 1012.7
20260906214056 78 236 1.0 4.0 0.00 0.00 0.00 46 1012.6
20260906213036 76 63 1.0 3.0 0.00 0.00 0.00 48 1012.7
20260906212016 76 275 1.0 3.0 0.00 0.00 0.00 46 1012.9
20260906211017 76 260 3.0 5.0 0.00 0.00 0.00 47 1013.1
20260906210036 76 264 2.0 3.0 0.00 0.00 0.00 48 1013.3
20260906205016 75 245 2.0 4.0 0.00 0.00 0.00 49 1013.4
20260906204036 75 267 2.0 5.0 0.00 0.00 0.00 49 1013.5
20260906203017 74 259 2.0 4.0 0.00 0.00 0.00 48 1013.7
20260906202016 73 329 0.0 3.0 0.00 0.00 0.00 51 1013.7
20260906201016 73 246 2.0 5.0 0.00 0.00 0.00 50 1013.9
20260906200016 74 247 1.0 4.0 0.00 0.00 0.00 51 1014.1
20260906195016 74 240 1.0 4.0 0.00 0.00 0.00 50 1014.1
20260906194015 73 247 3.0 5.0 0.00 0.00 0.00 51 1014.2
20260906193015 73 32 2.0 3.0 0.00 0.00 0.00 51 1014.4
20260906192016 73 282 0.0 4.0 0.00 0.00 0.00 51 1014.4
20260906191016 72 260 2.0 4.0 0.00 0.00 0.00 51 1014.8
20260906190036 72 229 2.0 2.0 0.00 0.00 0.00 51 1014.9
20260906185017 71 268 1.0 2.0 0.00 0.00 0.00 55 1015.1
20260906184016 70 270 2.0 5.0 0.00 0.00 0.00 53 1015.3
20260906183015 70 256 2.0 5.0 0.00 0.00 0.00 54 1015.5
20260906182016 70 66 0.0 2.0 0.00 0.00 0.00 52 1015.7
20260906181016 70 273 1.0 2.0 0.00 0.00 0.00 53 1015.9
20260906180017 70 273 1.0 2.0 0.00 0.00 0.00 53 1016.1
20260906175015 70 271 1.0 3.0 0.00 0.00 0.00 54 1016.3
20260906174017 68 239 1.0 1.0 0.00 0.00 0.00 57 1016.5
20260906173016 67 119 0.0 1.0 0.00 0.00 0.00 55 1016.8
20260906172015 67 273 1.0 3.0 0.00 0.00 0.00 56 1017.0
20260906171016 66 0.0 1.0 0.00 0.00 0.00 57 1017.1
20260906170016 65 48 2.0 3.0 0.00 0.00 0.00 56 1017.3
20260906165057 65 52 1.0 3.0 0.00 0.00 0.00 57 1017.4
20260906164037 64 278 1.0 3.0 0.00 0.00 0.00 57 1017.7
20260906163017 64 0.0 1.0 0.00 0.00 0.00 58 1017.9
20260906162018 64 270 0.0 1.0 0.00 0.00 0.00 60 1018.1
20260906161017 63 111 0.0 1.0 0.00 0.00 0.00 59 1018.4
20260906160017 63 131 1.0 2.0 0.00 0.00 0.00 60 1018.4
20260906155017 63 273 0.0 1.0 0.00 0.00 0.00 62 1018.3
20260906154037 61 229 0.0 1.0 0.00 0.00 0.00 63 1018.5
20260906153018 61 274 1.0 1.0 0.00 0.00 0.00 64 1018.6
20260906152017 60 268 1.0 5.0 0.00 0.00 0.00 64 1018.7
20260906151017 59 103 0.0 1.0 0.00 0.00 0.00 67 1018.7
20260906150018 58 102 0.0 1.0 0.00 0.00 0.00 70 1018.8
20260906145037 56 0.0 1.0 0.00 0.00 0.00 72 1018.9
20260906144037 54 0.0 1.0 0.00 0.00 0.00 76 1019.0
20260906143017 53 108 0.0 1.0 0.00 0.00 0.00 77 1018.9
20260906142137 53 0.0 1.0 0.00 0.00 0.00 78 1019.0
20260906141122 52 0.0 0.0 0.00 0.00 0.00 79 1019.0
20260906140017 51 58 1.0 2.0 0.00 0.00 0.00 79 1019.1
20260906135037 51 77 0.0 1.0 0.00 0.00 0.00 80 1018.9
20260906134019 51 0.0 0.0 0.00 0.00 0.00 79 1018.9
20260906133017 51 72 0.0 1.0 0.00 0.00 0.00 80 1018.9
20260906132017 50 0.0 0.0 0.00 0.00 0.00 81 1019.0
20260906131017 50 0.0 0.0 0.00 0.00 0.00 81 1018.9
20260906130017 50 0.0 0.0 0.00 0.00 0.00 81 1019.0
20260906125017 50 54 0.0 1.0 0.00 0.00 0.00 82 1019.0
20260906124037 50 0.0 0.0 0.00 0.00 0.00 82 1019.0
20260906123017 51 0.0 1.0 0.00 0.00 0.00 81 1019.0
20260906122017 52 0.0 0.0 0.00 0.00 0.00 79 1019.0
20260906121017 52 0.0 0.0 0.00 0.00 0.00 77 1018.8
20260906120017 53 0.0 1.0 0.00 0.00 0.00 76 1018.9
20260906115017 54 262 0.0 1.0 0.00 0.00 0.00 74 1018.1
20260906114018 54 46 0.0 2.0 0.00 0.00 0.00 73 1017.8
20260906113017 55 55 3.0 6.0 0.00 0.00 0.00 70 1017.4
20260906112017 58 53 1.0 6.0 0.00 0.00 0.00 63 1016.9
20260906111017 61 354 0.0 2.0 0.00 0.00 0.00 56 1016.5
20260906110016 60 49 3.0 9.0 0.00 0.00 0.00 56 1016.2
20260906105018 60 54 5.0 14.0 0.00 0.00 0.00 56 1016.1
20260906104017 60 190 0.0 9.0 0.00 0.00 0.00 56 1015.9
20260906103017 60 74 4.0 7.0 0.00 0.00 0.00 56 1015.8
20260906102057 60 82 4.0 8.0 0.00 0.00 0.00 55 1015.7
20260906101017 60 65 3.0 8.0 0.00 0.00 0.00 55 1015.4
20260906100018 60 80 3.0 7.0 0.00 0.00 0.00 55 1015.4
20260906095017 60 88 5.0 11.0 0.00 0.00 0.00 55 1015.5
20260906094017 60 137 3.0 10.0 0.00 0.00 0.00 55 1015.6
20260906093036 60 55 2.0 6.0 0.00 0.00 0.00 54 1015.8
20260906092017 60 29 3.0 7.0 0.00 0.00 0.00 54 1015.8
20260906091037 61 96 1.0 6.0 0.00 0.00 0.00 53 1015.9
20260906090017 61 35 4.0 7.0 0.00 0.00 0.00 54 1016.1
20260906085016 61 55 2.0 5.0 0.00 0.00 0.00 53 1016.1
20260906084017 61 51 1.0 6.0 0.00 0.00 0.00 52 1016.2
20260906083016 61 47 1.0 4.0 0.00 0.00 0.00 52 1016.2
20260906082016 61 340 1.0 4.0 0.00 0.00 0.00 52 1016.3
20260906081018 61 38 0.0 6.0 0.00 0.00 0.00 52 1016.3
20260906080017 62 78 3.0 8.0 0.00 0.00 0.00 51 1016.4
20260906075016 62 150 1.0 6.0 0.00 0.00 0.00 50 1016.5
20260906074017 62 298 0.0 5.0 0.00 0.00 0.00 50 1016.7
20260906073016 62 89 3.0 7.0 0.00 0.00 0.00 49 1016.7
20260906072018 63 66 2.0 4.0 0.00 0.00 0.00 49 1016.7
20260906071016 63 57 3.0 7.0 0.00 0.00 0.00 48 1016.8
20260906070018 63 53 4.0 8.0 0.00 0.00 0.00 47 1016.7
20260906065017 63 104 2.0 8.0 0.00 0.00 0.00 47 1016.8
20260906064017 63 64 3.0 5.0 0.00 0.00 0.00 47 1016.8
20260906063016 63 58 3.0 9.0 0.00 0.00 0.00 46 1016.9
20260906062016 64 101 1.0 7.0 0.00 0.00 0.00 45 1017.0
20260906061016 64 87 2.0 6.0 0.00 0.00 0.00 45 1016.8
20260906060016 64 63 2.0 4.0 0.00 0.00 0.00 45 1017.1
20260906055037 64 67 2.0 8.0 0.00 0.00 0.00 44 1017.1
20260906054016 64 43 1.0 4.0 0.00 0.00 0.00 44 1017.0
20260906053016 64 82 4.0 6.0 0.00 0.00 0.00 44 1017.1
20260906052017 64 67 2.0 4.0 0.00 0.00 0.00 44 1017.0
20260906051037 64 23 0.0 5.0 0.00 0.00 0.00 44 1017.1
20260906050016 65 8 1.0 3.0 0.00 0.00 0.00 42 1017.2
20260906045017 66 40 1.0 4.0 0.00 0.00 0.00 43 1017.1
20260906044037 65 88 2.0 6.0 0.00 0.00 0.00 43 1017.0
20260906043016 66 323 0.0 6.0 0.00 0.00 0.00 43 1017.0
20260906042016 67 71 1.0 4.0 0.00 0.00 0.00 42 1017.0
20260906041017 67 332 1.0 2.0 0.00 0.00 0.00 41 1016.8
20260906040017 67 21 2.0 6.0 0.00 0.00 0.00 40 1016.8
20260906035017 67 91 1.0 2.0 0.00 0.00 0.00 40 1016.7
20260906034017 67 91 2.0 4.0 0.00 0.00 0.00 39 1016.8
20260906033016 67 81 0.0 3.0 0.00 0.00 0.00 39 1016.8
20260906032016 67 88 0.0 4.0 0.00 0.00 0.00 39 1016.8
20260906031017 68 52 1.0 4.0 0.00 0.00 0.00 38 1016.8
20260906030016 67 60 2.0 5.0 0.00 0.00 0.00 38 1016.5
20260906025017 68 71 1.0 6.0 0.00 0.00 0.00 38 1016.3
20260906024016 68 108 0.0 2.0 0.00 0.00 0.00 37 1016.1
20260906023036 68 102 2.0 4.0 0.00 0.00 0.00 37 1015.9
20260906022016 69 128 1.0 2.0 0.00 0.00 0.00 37 1015.8
20260906021017 69 89 0.0 1.0 0.00 0.00 0.00 36 1015.6
20260906020016 71 136 1.0 6.0 0.00 0.00 0.00 35 1015.7
20260906015016 72 52 2.0 5.0 0.00 0.00 0.00 34 1015.6
20260906014017 73 117 2.0 6.0 0.00 0.00 0.00 33 1015.6
20260906013016 74 63 3.0 5.0 0.00 0.00 0.00 32 1015.6
20260906012016 75 32 1.0 5.0 0.00 0.00 0.00 32 1015.7
20260906011036 75 98 3.0 7.0 0.00 0.00 0.00 31 1015.6
20260906010021 76 71 2.0 7.0 0.00 0.00 0.00 31 1015.6
20260906005016 76 97 5.0 9.0 0.00 0.00 0.00 30 1015.5
20260906004016 77 89 4.0 7.0 0.00 0.00 0.00 31 1015.3
20260906003016 77 81 3.0 12.0 0.00 0.00 0.00 31 1015.4
20260906002016 78 58 5.0 13.0 0.00 0.00 0.00 30 1015.4
20260906001016 78 110 3.0 8.0 0.00 0.00 0.00 30 1015.5
20260906000016 79 95 3.0 7.0 0.00 0.00 0.00 31 1015.6
20260905235041 79 58 5.0 11.0 0.00 0.00 0.00 29 1015.6
20260905234016 80 16 1.0 7.0 0.00 0.00 0.00 30 1015.5
20260905233036 79 91 1.0 4.0 0.00 0.00 0.00 37 1015.5
20260905232016 79 273 0.0 1.0 0.00 0.00 0.00 39 1015.6
20260905231016 77 260 0.0 1.0 0.00 0.00 0.00 41 1015.6
20260905230016 76 268 1.0 3.0 0.00 0.00 0.00 45 1015.6